Probability
0 0 0 0 0 0 0 0 0 0 0 0 0 0 0 0 0 0 0 0 0 3 0 0 0 0 0 0 0 0 0 0 0 0 0 0 0 0 0 0 0 0 0
0 0 0 0 0 0 0 0 0 0 0 0 0 0 0 0 0 0 0 0 0 0 0 0 0 0 0 0 0 0 0 0 0 0 0 0 0 0 0 0 0 0 0
0 0 0 0 0 0 0 0 0 0 0 0 0 0 0 0 0 0 0 0 0 0 0 0 0 0 0 0 0 0 0 0 0 0 0 0 0 0 0 0 0 0 0
0 0 0 0 0 0 0 0 0 0 0 0 0 0 0 0 0 0 0 0 0 0 0 0 0 0 0 0 0 0 0 0 0 0 0 0 0 0 0 0 0 0 0
0 0 0 0 0 0 0 0 0 0 0 0 0 0 0 0 0 0 0 0 0 0 0 0 0 0 0 0 0 0 0 0 0 0 0 0 0 0 0 0 0 0 0
0 0 0 0 0 0 0 0 0 0 0 0 0 0 0 0 0 0 0 0 0 0 0 0 0 0 0 0 0 0 0 0 0 0 0 0 0 0 0 0 0 0 0
0 0 0 0 0 0 0 0 0 0 0 0 0 0 0 0 0 0 0 0 0 0 0 0 0 0 0 0 0 0 0 0 0 0 0 0 0 0 0 0 0 0 0
0 0 0 0 0 0 0 0 0 0 0 0 0 0 0 0 0 0 0 0 0 0 0 0 0 0 0 0 0 0 0 0 0 0 0 0 0 0 0 0 0 0 0
0 0 0 0 0 0 0 3 3 0 0 0 0 0 0 0 0 0 0 0 0 0 0 0 0 0 0 0 0 0 0 0 0 0 0 0 0 0 0 0 0 0 0
0 0 0 0 0 0 0 0 3 3 0 0 0 0 0 0 0 0 0 0 0 0 0 0 0 0 0 0 0 0 0 0 0 0 0 0 0 0 0 0 0 0 0
0 0 0 0 0 0 0 0 0 0 3 0 0 0 0 0 0 0 0 0 0 0 0 0 0 0 0 0 0 0 0 0 0 0 0 0 0 0 0 0 0 0 0
0 0 0 0 0 0 0 0 0 0 0 0 0 0 0 0 0 0 0 0 0 0 0 0 0 0 0 0 0 0 0 0 0 0 0 0 0 0 0 0 0 0 0
0 0 0 0 0 0 0 0 0 0 0 0 0 0 0 0 0 0 0 0 0 0 0 0 0 0 0 0 0 0 0 0 0 0 0 0 0 0 0 0 0 0 0
0 0 0 0 0 0 0 0 0 0 0 0 0 0 0 0 0 0 0 0 0 0 0 0 0 0 0 0 0 0 0 0 0 0 0 0 0 0 0 0 0 0 0
0 0 0 0 0 0 0 0 0 0 0 0 0 0 0 0 0 0 0 0 0 0 0 0 0 0 0 0 0 0 0 0 0 0 0 0 0 0 0 0 0 0 0
0 0 0 0 0 0 0 0 0 0 0 0 0 0 0 0 0 0 0 0 0 0 0 0 0 0 0 0 0 0 0 0 0 0 0 0 0 0 0 0 0 0 0
0 0 0 0 0 0 0 0 0 0 0 0 0 0 0 0 0 0 0 0 0 0 0 0 0 0 0 0 0 0 0 0 0 0 0 0 0 0 0 0 0 0 0
0 0 0 0 0 0 0 0 0 0 0 0 0 0 0 0 0 0 0 0 0 0 0 0 0 0 0 0 0 0 0 0 0 0 0 0 0 0 0 0 0 0 0
0 0 0 0 0 0 0 0 0 0 0 0 0 0 0 0 0 0 0 0 0 0 0 0 0 0 0 0 0 0 0 0 0 0 0 0 0 0 0 0 0 0 0
0 0 0 0 0 0 0 0 0 0 0 0 0 0 0 0 0 0 0 0 0 0 0 0 0 0 0 0 0 0 0 0 0 0 0 0 0 0 0 0 0 0 0
0 0 0 0 0 0 0 0 0 0 0 0 0 0 0 0 0 0 0 0 0 0 0 0 0 0 0 0 0 0 0 0 0 0 0 0 0 0 0 0 0 0 0
0 0 0 0 0 0 0 0 0 0 0 0 0 0 0 0 0 0 0 0 0 0 0 0 0 0 0 0 0 0 0 0 0 0 0 0 0 0 0 0 0 0 0
0 0 0 0 0 0 0 0 0 0 0 0 0 0 0 0 0 0 0 0 0 0 0 0 0 0 0 0 0 0 0 0 0 0 0 0 0 0 0 0 0 0 0
0 0 0 0 0 0 0 0 0 0 0 0 0 0 0 0 0 0 0 0 0 0 0 0 0 0 0 0 0 0 0 0 0 0 0 0 0 0 0 0 0 0 0
0 0 0 0 0 0 0 0 0 0 0 0 0 0 0 0 0 0 0 0 0 0 0 0 0 0 0 0 0 0 0 0 0 0 0 0 0 0 0 0 0 0 0
0 0 0 0 0 0 0 0 0 0 0 0 0 0 0 0 0 0 0 0 0 0 0 0 0 0 0 0 0 0 0 0 0 0 0 0 0 0 0 0 0 0 0
Height
5832 5830 5827 5825 5822 5820 5817 5814 5812 5809 5806 5804 5801 5799 5796 5794 5792 5790 5788 5785 5783 5781 5780 5778 5777 5776 5775 5775 5775 5776 5777 5779 5781 5783 5785 5789 5792 5796 5800 5803 5807 5811 5814
5828 5826 5823 5820 5818 5815 5812 5809 5807 5804 5802 5799 5797 5794 5792 5790 5788 5786 5784 5783 5781 5779 5777 5776 5775 5774 5773 5773 5773 5773 5774 5776 5777 5779 5782 5784 5788 5791 5794 5798 5801 5805 5808
5823 5821 5818 5815 5812 5809 5806 5803 5800 5798 5796 5794 5792 5790 5788 5785 5784 5782 5780 5779 5777 5776 5774 5773 5772 5771 5770 5770 5770 5770 5771 5772 5773 5775 5778 5780 5783 5786 5789 5792 5796 5799 5802
5818 5815 5812 5809 5806 5803 5800 5797 5794 5792 5790 5788 5786 5784 5782 5780 5779 5777 5776 5775 5773 5772 5770 5769 5768 5767 5767 5766 5766 5766 5767 5768 5769 5771 5773 5776 5778 5781 5784 5787 5790 5793 5797
5812 5809 5806 5802 5799 5796 5793 5790 5787 5785 5783 5781 5779 5777 5775 5774 5773 5771 5770 5769 5768 5767 5766 5765 5764 5763 5762 5762 5762 5762 5763 5764 5765 5767 5769 5771 5773 5776 5779 5782 5785 5788 5791
5805 5802 5798 5794 5791 5788 5785 5782 5779 5777 5775 5773 5771 5769 5768 5766 5765 5764 5763 5762 5761 5761 5760 5759 5759 5758 5757 5757 5757 5757 5758 5759 5760 5762 5764 5766 5768 5771 5773 5776 5779 5782 5785
5798 5794 5790 5786 5783 5779 5776 5773 5770 5768 5766 5764 5762 5760 5759 5757 5756 5755 5754 5754 5753 5753 5753 5753 5753 5752 5752 5752 5752 5752 5753 5754 5755 5757 5758 5760 5763 5765 5768 5770 5773 5776 5779
5789 5785 5782 5778 5774 5771 5767 5764 5761 5758 5756 5753 5751 5749 5748 5748 5746 5746 5745 5744 5744 5744 5744 5745 5745 5745 5745 5745 5745 5746 5747 5748 5749 5750 5752 5754 5757 5759 5761 5764 5766 5769 5772
5780 5777 5773 5769 5765 5761 5758 5754 5750 5747 5744 5742 5740 5738 5737 5736 5735 5734 5733 5733 5734 5734 5735 5735 5736 5737 5737 5737 5738 5739 5740 5741 5742 5744 5746 5748 5750 5753 5755 5758 5760 5762 5765
5771 5767 5763 5759 5755 5751 5747 5743 5739 5736 5733 5730 5727 5725 5724 5724 5723 5722 5721 5721 5722 5723 5724 5725 5726 5727 5728 5728 5730 5731 5733 5734 5736 5738 5740 5742 5744 5746 5748 5751 5753 5756 5758
5761 5757 5753 5749 5744 5740 5736 5731 5727 5723 5720 5717 5714 5712 5711 5710 5709 5708 5707 5708 5708 5710 5711 5713 5715 5716 5718 5719 5721 5723 5725 5727 5728 5730 5732 5735 5737 5739 5742 5744 5746 5749 5751
5750 5746 5742 5737 5733 5728 5723 5718 5713 5709 5705 5702 5700 5698 5696 5695 5695 5694 5693 5693 5694 5695 5698 5699 5702 5704 5707 5709 5711 5713 5715 5718 5720 5722 5725 5727 5730 5732 5734 5736 5739 5741 5744
5739 5735 5730 5726 5721 5715 5710 5705 5700 5695 5690 5687 5685 5683 5682 5681 5680 5679 5679 5679 5679 5680 5683 5685 5688 5691 5694 5697 5701 5703 5706 5708 5711 5714 5717 5719 5722 5724 5726 5729 5731 5733 5736
5728 5723 5718 5713 5708 5702 5697 5691 5686 5681 5677 5673 5671 5669 5667 5665 5664 5663 5663 5664 5665 5665 5668 5671 5674 5677 5681 5686 5689 5692 5695 5698 5701 5704 5708 5710 5713 5716 5718 5720 5723 5725 5728
5715 5710 5705 5700 5694 5689 5684 5679 5673 5669 5663 5660 5657 5654 5652 5651 5650 5648 5648 5649 5650 5651 5653 5657 5660 5664 5668 5673 5677 5680 5684 5687 5690 5694 5697 5700 5703 5707 5709 5712 5715 5717 5720
5702 5697 5691 5686 5681 5676 5671 5667 5661 5655 5651 5647 5643 5640 5638 5637 5635 5635 5635 5635 5636 5637 5639 5642 5646 5650 5654 5658 5663 5667 5672 5676 5679 5683 5687 5690 5694 5697 5700 5703 5706 5709 5712
5688 5682 5677 5672 5667 5662 5657 5652 5648 5644 5639 5634 5630 5627 5625 5623 5622 5622 5621 5622 5622 5623 5625 5628 5631 5635 5640 5644 5649 5654 5659 5664 5668 5672 5676 5680 5683 5687 5690 5694 5697 5700 5703
5674 5668 5663 5658 5653 5648 5643 5637 5633 5629 5626 5622 5618 5614 5612 5610 5609 5608 5608 5608 5609 5610 5612 5615 5618 5621 5625 5630 5635 5640 5646 5651 5656 5660 5665 5669 5673 5676 5680 5683 5687 5690 5693
5660 5654 5649 5643 5638 5633 5628 5623 5619 5614 5610 5607 5605 5602 5599 5597 5596 5595 5593 5593 5595 5596 5598 5601 5604 5607 5611 5616 5621 5626 5632 5638 5643 5649 5653 5658 5662 5665 5669 5673 5677 5680 5683
5645 5640 5634 5629 5624 5619 5614 5609 5604 5600 5596 5593 5590 5587 5585 5583 5581 5581 5580 5579 5580 5582 5584 5587 5590 5594 5598 5602 5608 5613 5619 5624 5630 5636 5641 5646 5650 5654 5658 5662 5666 5670 5673
5631 5625 5620 5614 5609 5604 5599 5594 5589 5585 5581 5578 5575 5572 5569 5567 5567 5566 5566 5566 5567 5568 5570 5573 5576 5580 5584 5589 5594 5600 5605 5611 5617 5623 5629 5634 5638 5643 5647 5651 5656 5659 5663
5616 5610 5605 5599 5594 5589 5583 5578 5574 5570 5566 5563 5560 5558 5555 5553 5552 5552 5552 5553 5553 5555 5556 5559 5563 5567 5571 5576 5581 5587 5592 5598 5604 5610 5616 5621 5626 5631 5636 5641 5645 5648 5652
5600 5595 5589 5584 5578 5573 5568 5563 5559 5555 5551 5547 5545 5543 5541 5539 5537 5537 5537 5538 5539 5541 5543 5546 5549 5553 5558 5563 5568 5574 5580 5585 5591 5597 5603 5610 5615 5620 5625 5630 5634 5638 5642
5585 5579 5574 5568 5563 5558 5553 5548 5544 5540 5536 5533 5530 5528 5527 5525 5524 5523 5523 5524 5525 5527 5529 5532 5536 5540 5545 5549 5555 5560 5566 5573 5579 5585 5591 5598 5604 5609 5614 5618 5623 5627 5632
5569 5563 5558 5552 5547 5542 5538 5533 5529 5525 5522 5519 5516 5515 5513 5512 5511 5510 5510 5511 5511 5513 5516 5519 5523 5527 5532 5537 5542 5547 5554 5560 5566 5573 5579 5586 5592 5598 5603 5608 5613 5617 5622
5553 5548 5542 5537 5532 5527 5522 5518 5514 5511 5508 5505 5503 5501 5499 5498 5497 5497 5497 5498 5499 5500 5502 5506 5510 5514 5518 5523 5529 5534 5541 5547 5554 5561 5567 5574 5580 5587 5592 5597 5602 5607 5612
Wind_Speed
19 20 21 22 22 22 23 23 23 23 23 23 22 22 21 20 19 19 18 17 16 15 13 12 11 11 10 10 10 12 14 15 18 20 21 22 24 24 24 25 27 28 28
21 22 23 23 24 24 24 24 24 24 24 24 23 22 22 21 20 19 19 18 16 15 14 13 12 12 11 11 11 12 13 14 16 18 19 20 22 23 24 25 25 26 28
23 24 24 25 26 26 26 25 25 25 24 24 24 23 23 22 21 20 19 18 17 16 15 15 14 13 13 13 13 14 15 15 16 18 19 20 22 23 24 25 25 25 27
24 25 26 27 27 27 27 27 27 26 25 25 25 24 24 23 22 22 20 20 19 18 16 16 15 15 14 14 15 15 15 16 17 18 19 20 21 22 23 24 25 25 25
26 27 28 29 29 29 29 29 28 28 27 27 26 26 25 24 24 23 22 21 21 19 18 17 16 16 15 15 16 16 17 17 18 18 19 21 22 23 23 24 25 26 26
29 30 30 31 31 31 31 31 31 30 29 29 28 28 27 26 25 25 25 24 22 21 20 19 18 17 17 17 16 16 17 18 18 19 20 20 22 23 24 25 24 25 27
31 31 32 32 32 32 33 33 33 32 32 31 31 30 30 29 27 27 27 27 25 24 22 21 20 20 19 18 18 18 18 19 19 20 21 21 22 22 24 24 25 25 26
32 33 33 33 33 34 34 34 34 34 34 33 33 32 32 31 30 29 29 29 28 27 25 24 23 22 22 20 20 20 20 20 20 21 21 22 22 22 23 24 25 25 25
34 34 35 35 35 36 36 37 37 36 36 36 35 35 34 34 33 32 32 31 30 29 28 27 26 25 24 23 22 21 21 21 21 21 21 22 22 22 22 23 24 25 25
36 36 37 37 38 38 39 39 39 39 39 39 38 38 37 36 35 35 34 34 33 32 31 30 29 27 26 25 24 23 22 22 22 22 22 23 23 23 23 23 24 25 25
38 39 39 40 40 41 42 42 42 42 42 42 41 40 39 38 37 36 36 36 35 34 33 33 31 30 29 28 27 26 25 24 24 23 23 24 24 24 25 25 25 25 25
40 41 42 42 42 43 44 45 45 45 44 43 42 41 40 39 38 38 37 38 38 36 35 35 34 33 32 30 29 28 28 27 26 25 25 25 25 25 25 25 26 25 25
42 43 43 44 45 46 46 46 46 46 45 43 42 41 41 40 40 39 38 38 39 37 36 36 35 35 34 32 31 31 30 30 29 28 27 26 26 26 26 25 26 25 25
44 45 45 46 46 47 47 47 46 46 45 43 42 41 41 40 40 39 37 37 38 37 37 36 36 36 36 35 33 33 32 32 32 31 29 28 27 27 27 26 26 25 25
47 47 47 47 47 47 47 47 47 46 45 44 42 41 40 39 39 39 37 36 37 37 37 37 37 36 36 37 36 35 34 33 32 32 31 30 29 28 28 27 26 25 25
49 49 49 48 48 48 47 47 47 46 45 44 43 42 41 39 38 39 38 37 37 38 37 37 38 38 38 38 37 37 36 34 33 31 31 31 30 30 29 28 28 27 26
51 51 50 49 49 49 49 49 47 46 44 44 43 42 41 40 39 39 39 38 37 37 37 37 38 38 38 39 38 38 37 36 35 33 32 31 31 31 30 30 29 28 28
52 51 51 50 50 51 50 49 48 46 44 43 42 41 41 40 40 39 40 39 38 37 38 37 38 38 39 39 38 38 38 37 36 34 33 32 32 32 31 30 30 29 28
52 52 52 52 51 51 51 50 48 47 45 44 42 41 41 41 40 40 40 40 39 39 39 38 38 38 38 38 38 37 38 38 37 36 35 34 33 33 32 32 31 30 29
53 53 53 52 52 52 51 50 49 48 46 45 43 42 42 41 40 40 39 39 39 39 39 38 38 38 38 38 38 37 38 38 38 38 37 35 34 33 33 32 32 31 31
53 53 53 53 53 52 52 51 50 49 47 45 44 43 42 41 39 39 38 38 38 38 38 39 38 37 38 39 39 38 38 38 39 39 38 37 35 34 33 32 32 31 31
54 55 55 54 54 53 52 51 50 49 47 46 44 43 42 40 39 38 38 38 38 37 37 38 38 39 39 39 39 38 38 38 39 39 38 37 36 34 34 33 32 32 32
55 56 55 55 54 53 52 51 49 48 47 45 43 41 39 38 37 37 37 38 37 37 37 38 38 39 40 40 40 39 39 39 40 39 39 39 37 35 34 34 33 32 32
56 56 56 55 54 52 51 50 49 47 45 43 42 40 39 37 37 36 36 36 36 36 37 38 38 39 40 41 41 40 40 40 41 41 40 39 38 36 35 34 33 33 32
56 56 56 54 53 52 50 49 47 45 43 42 41 40 39 38 37 36 35 35 35 35 36 37 38 39 40 40 41 41 40 41 42 42 41 40 39 37 35 34 34 33 32
56 56 55 53 52 50 49 47 45 43 42 41 40 39 38 38 37 36 35 35 35 35 36 37 38 39 40 40 40 41 41 42 43 43 42 41 40 38 37 35 34 34 32
Wind_Direction
317 318 319 320 320 320 320 320 320 320 320 320 321 322 322 322 322 323 324 324 323 319 318 315 307 298 288 274 263 255 245 240 235 232 231 231 229 228 229 230 231 230 231
314 315 316 318 318 319 318 318 317 317 317 318 318 318 318 317 317 318 319 320 319 315 309 306 301 294 285 276 266 257 250 246 240 236 233 231 230 230 231 232 233 234 234
313 313 314 315 316 317 317 317 315 313 313 314 316 314 314 314 313 313 314 313 314 311 306 301 295 288 281 275 268 259 254 249 243 237 235 232 232 232 230 231 234 237 236
312 313 313 313 314 315 315 315 313 311 309 309 310 311 309 309 308 307 307 307 306 306 303 298 292 287 282 275 269 262 256 251 245 239 236 235 235 233 232 233 234 236 236
311 311 311 311 310 310 310 310 310 309 307 305 305 305 304 302 303 301 300 300 299 298 297 292 289 284 281 275 269 263 256 253 247 241 239 238 236 234 234 235 235 237 236
309 309 309 309 308 308 308 307 307 306 304 302 301 301 300 297 295 295 294 293 292 291 289 285 282 280 277 273 268 262 257 252 248 244 241 240 238 237 237 236 237 237 235
307 307 307 307 307 307 307 305 304 303 302 300 298 297 296 295 292 290 287 286 285 285 284 280 276 273 271 268 265 261 256 251 249 246 242 240 240 238 238 237 237 236 236
305 306 306 305 306 306 305 305 304 302 301 300 297 295 294 292 289 286 284 282 280 278 278 276 273 269 266 264 260 258 256 251 248 245 242 239 237 238 238 238 238 238 237
304 305 305 305 305 305 305 305 304 302 300 298 297 294 291 289 286 283 281 279 277 275 273 271 269 265 262 260 257 255 254 251 247 245 244 241 239 236 237 238 240 240 240
304 304 305 305 305 305 306 306 304 302 300 298 295 293 290 286 284 281 278 276 273 271 269 268 265 263 260 257 255 253 251 248 245 244 243 241 240 238 237 239 240 240 241
304 304 304 304 304 305 305 305 304 302 299 297 294 291 288 285 283 280 277 274 271 268 265 264 262 259 257 256 253 251 249 247 246 245 243 242 241 240 239 241 242 241 241
304 304 304 304 304 304 305 305 304 302 299 296 293 290 286 283 281 279 276 273 270 266 263 260 258 255 253 252 250 248 247 245 244 243 242 242 241 241 240 240 241 243 241
304 304 304 304 304 304 305 305 304 303 300 297 293 290 285 282 279 278 276 272 268 264 261 257 255 252 251 249 248 247 245 245 244 243 242 241 241 241 241 241 242 242 242
305 305 305 304 304 304 305 305 304 304 301 298 294 290 286 282 279 276 273 270 267 263 259 255 254 251 248 246 246 246 244 244 243 243 242 241 241 242 243 244 245 245 244
305 305 305 304 304 304 304 304 304 303 301 298 295 291 288 283 278 274 272 269 266 263 259 254 251 250 246 244 244 244 244 244 243 242 242 241 241 241 242 244 244 245 245
305 305 305 304 303 303 303 303 303 302 300 297 295 291 287 284 279 276 273 270 266 263 260 256 251 248 244 242 243 243 243 243 243 242 241 241 241 241 241 242 243 244 244
305 305 304 303 303 303 303 303 302 301 298 296 294 290 286 283 280 277 273 270 266 263 259 256 251 248 243 241 242 242 242 242 242 242 242 241 240 239 240 241 241 242 242
305 304 303 302 303 303 303 303 302 300 298 295 293 289 285 283 279 277 274 270 265 261 258 255 251 247 243 240 240 240 240 240 240 239 239 239 239 239 238 239 240 241 242
303 303 302 303 303 303 303 302 301 299 297 294 291 288 285 282 278 276 273 269 265 261 257 254 251 247 242 239 239 238 237 238 238 238 237 238 238 238 239 239 240 241 243
303 303 302 302 302 302 302 302 300 298 296 294 291 288 286 282 278 274 271 268 264 260 257 253 249 246 242 238 237 236 236 237 237 237 237 237 237 238 239 240 240 241 243
302 302 302 303 302 301 301 300 299 298 296 293 291 288 286 283 279 274 270 267 264 260 256 252 248 244 240 237 235 235 235 235 235 235 236 236 236 236 237 238 239 241 242
302 302 302 302 302 301 300 299 298 298 296 293 291 289 286 283 279 273 269 267 264 260 256 253 248 242 238 236 235 234 234 234 233 233 233 233 234 234 236 237 238 240 242
302 302 302 302 301 301 299 298 298 298 296 294 291 289 285 283 279 273 270 267 264 259 255 252 248 242 237 236 235 234 233 233 231 230 230 231 233 234 234 236 237 239 240
301 302 302 302 301 300 299 297 297 297 295 293 290 288 284 282 279 274 270 268 264 259 254 250 248 243 239 237 235 234 233 232 230 229 229 230 231 231 232 233 235 237 238
301 301 302 302 300 299 298 297 295 295 294 292 290 287 283 281 279 274 270 267 264 259 253 250 248 244 239 236 234 233 232 230 230 229 229 229 229 230 231 232 233 234 237
301 301 301 301 300 299 297 296 295 294 293 291 289 287 284 282 279 274 270 266 264 259 253 249 247 244 238 234 232 230 229 227 227 226 226 228 228 230 231 231 232 233 236